sat.trackr.live / text

‹ back to catalog

STARLINK-31636

NORAD 59747 · 2024-090T

PAYLOAD ACTIVE UNKNOWN

§ Identity

Operator
Country
US
Launch date
2024-05-13
Launch site
AFETR
Launch vehicle
Mass (kg)
RCS (m²)

Purposes: comms

External: N2YO · Heavens-Above · Gunter

§ Orbital elements

Epoch: 2026-05-25T04:50:23.817120Z

Period
94.27 min
Inclination
43.0005°
Eccentricity
0.0000997
Mean motion
15.27575622 rev/d
Perigee alt
482.4 km
Apogee alt
483.7 km
Semi-major
6,861.2 km
B*
2.8610e-5
RAAN
111.2242°
Arg perigee
271.4578°
Mean anomaly
88.6160°
Rev number
11,514

§ Raw data

STARLINK-316361 59747U 24090T   26145.20166455  .00000525  00000+0  28610-4 0  99962 59747  43.0005 111.2242 0000997 271.4578  88.6160 15.27575622115141

JSON: /api/v1/satellites/59747 · /tle

For live sub-satellite position, see the globe view (requires WebGL).

§ Visibility from observer

Set your observer location to see the next 7 days of passes ≥ 10°. The values pass through the URL so the page stays shareable.

No JS? Fill the form by hand. The geolocation button needs JavaScript.